Back to catalog

GALAXY 33

AliveCommunicationsGEO
NORAD 54026·PAYLOAD·🇺🇸 United States

Launched Oct 8, 2022 from Cape Canaveral Space Force Station

Loading…

TLE

FreshSource: CelesTrak SupGP

Epoch: Sep 14, 2026, 00:00 UTC

1 54026C 22128A   26257.00000000  .00000167  00000+0  00000+0 0  2573
2 54026   0.0313 273.1529 0001839 251.4568  55.3785  1.00271548    19

Track GALAXY 33 in real time with AllMySat

Download on the App Store